GFSNW_850_temp_015.txt.gz
Temp
12 13 13 14 14 15 15 15 12 15 15 14 7 9 12 14 13 14 13 13 13 12 12 12 12 12 12 12 12 12 10 9 11 12 11 11 11 11 11 11 10 9 8 11
12 13 14 14 14 15 15 15 15 15 15 8 5 11 12 13 13 11 13 12 12 11 11 11 12 12 11 12 12 12 11 9 10 12 12 11 11 11 8 8 7 10 9 11
13 13 13 14 14 15 15 15 9 15 15 12 10 11 12 12 13 12 12 11 12 11 10 10 11 11 11 12 11 11 11 8 10 11 11 10 10 9 9 10 9 10 10 11
12 13 13 14 14 15 15 15 10 11 8 9 10 11 12 12 12 13 12 11 11 11 10 10 10 10 11 11 10 10 9 9 8 9 9 8 9 9 9 9 9 9 11 11
12 12 13 14 14 14 15 15 12 11 9 11 11 7 12 12 11 12 12 11 11 11 11 11 10 11 10 10 10 9 7 8 7 7 6 7 6 8 8 8 9 8 9 9
11 12 13 13 14 14 14 14 14 14 5 7 8 8 11 11 11 11 12 11 10 9 11 12 12 11 10 10 9 8 7 6 5 7 5 6 7 9 8 9 9 9 9 11
11 11 12 12 13 14 14 14 14 15 5 4 7 10 11 10 11 11 11 12 9 11 11 11 10 9 7 7 5 7 3 4 3 6 5 9 11 9 10 9 9 8 8 8
10 11 11 12 12 13 14 14 14 14 2 4 9 10 10 10 11 10 11 10 11 11 11 6 5 5 5 4 4 4 5 3 4 6 7 7 10 10 9 9 9 9 8 8
10 10 11 11 12 12 13 14 14 14 11 7 11 10 10 6 6 7 8 9 10 10 5 4 6 8 6 8 7 3 3 2 6 5 6 7 9 9 8 8 9 8 8 7
9 10 10 11 11 12 12 13 13 14 13 11 11 11 9 10 9 5 7 8 9 9 3 4 6 7 4 8 5 3 3 3 5 6 5 6 7 7 8 7 8 8 7 7
8 9 9 10 10 11 12 12 12 13 13 11 11 11 11 10 10 6 7 7 6 3 4 4 4 4 5 5 6 5 7 6 4 3 4 5 7 8 8 8 7 6 6 5
7 8 8 9 10 10 11 11 11 12 12 11 11 10 11 11 11 11 8 9 8 8 3 2 1 3 1 4 7 5 7 7 7 7 7 8 8 8 8 6 5 4 4 3
7 7 8 8 8 9 10 10 10 11 11 10 10 10 10 10 10 10 10 8 10 9 9 4 2 4 3 4 4 4 6 6 5 6 8 8 9 8 6 5 4 3 3 3
6 6 7 7 8 8 9 9 9 10 10 9 9 9 9 10 10 10 10 10 9 9 7 5 1 3 5 4 6 6 7 5 5 5 7 7 8 7 5 4 2 2 2 2
6 6 6 7 7 7 7 8 8 9 9 7 9 9 9 9 9 9 9 9 8 8 5 3 3 5 3 3 3 3 6 6 5 7 8 6 5 4 3 2 2 2 2 2
5 5 6 6 6 6 7 7 7 8 8 8 3 6 7 8 8 8 8 8 7 7 6 5 6 8 6 3 4 6 8 7 7 7 6 4 3 2 2 1 2 2 2 2
5 5 6 6 6 6 6 7 7 7 6 7 6 5 5 6 6 6 6 6 6 6 6 5 6 7 6 2 5 6 6 6 6 5 5 4 2 1 1 2 2 2 2 2
5 5 5 5 6 6 6 6 7 7 6 7 3 2 4 4 4 5 4 5 5 4 4 4 4 4 4 4 4 3 4 4 4 3 4 2 1 1 1 2 2 2 2 1
5 5 5 5 5 5 5 6 6 6 6 5 3 3 4 4 3 4 3 3 2 2 2 2 3 2 4 2 1 2 3 3 1 1 1 1 2 2 2 1 1 1 1 -0
5 5 5 4 4 5 5 5 5 5 4 4 2 2 3 4 3 2 3 2 1 2 1 1 1 2 1 1 1 2 2 2 2 2 2 2 1 1 0 0 0 -0 -1 -1
3 2 2 2 2 3 3 2 2 1 1 1 1 2 2 2 2 1 2 1 0 1 1 2 2 2 1 1 1 1 2 2 2 1 1 0 0 -0 -0 -0 -0 -1 -1 -1
1 1 1 1 1 0 0 1 -0 0 1 0 0 1 1 1 2 2 -0 1 -0 1 -2 0 1 0 1 1 1 1 1 1 1 1 0 0 -0 -0 -1 -1 -1 -2 -2 -2
1 1 0 0 0 1 2 2 1 1 -1 -0 0 -0 1 1 1 -0 -1 -0 -1 -3 -1 -0 -1 -0 1 1 1 1 1 1 0 0 -0 -1 -1 -1 -2 -2 -2 -2 -2 -2
1 1 0 -0 0 0 -0 -1 -1 -0 -0 -0 0 -1 -0 -1 -1 -2 -1 -2 -3 -1 -1 -1 -2 0 1 1 0 0 0 0 -0 -1 -1 -2 -2 -2 -2 -2 -2 -2 -2 -2
2 1 -1 -1 -2 -1 -1 -1 -1 -1 -0 -0 -1 -2 -1 -3 -2 -2 -3 -2 -1 -2 -1 -3 0 0 0 -0 -0 -0 -0 -1 -1 -1 -2 -2 -2 -2 -2 -2 -2 -3 -3 -3
1 -1 -3 -3 -2 -2 -1 -1 -0 -1 -0 -0 -0 -4 -2 -2 -3 -3 -2 -2 -3 -2 -4 0 0 0 -0 -0 -0 -0 -1 -1 -1 -2 -2 -2 -2 -2 -2 -2 -2 -3 -4 -4
-0 -3 -3 -2 -2 -1 -0 -0 -1 -1 -0 -2 -3 -3 -2 -5 -4 -3 -4 -5 -4 -1 0 1 0 -0 -1 -0 -0 -1 -1 -2 -2 -2 -2 -2 -2 -2 -2 -2 -2 -3 -4 -4

GFSNW_850_temp_021.txt.gz
Temp
12 12 13 14 14 14 15 15 19 15 16 18 19 19 19 18 19 18 19 20 20 20 19 19 19 18 18 16 17 18 17 17 17 19 18 18 18 18 18 16 16 16 14 15
12 13 13 14 14 14 15 18 16 15 16 17 17 18 18 19 19 19 19 18 19 19 19 17 18 18 15 16 17 17 17 17 17 18 18 17 17 18 17 16 14 13 13 15
12 13 13 14 14 15 15 17 16 16 16 17 19 19 18 17 17 17 18 18 19 19 18 19 17 17 16 15 15 13 14 17 16 16 17 18 17 17 17 16 13 14 15 17
12 13 13 14 14 15 15 17 17 16 17 17 19 19 19 18 17 18 18 18 19 18 17 18 17 18 16 15 13 15 16 15 16 16 17 17 17 16 16 16 16 14 15 16
12 13 13 14 14 15 15 17 17 15 17 18 19 15 19 19 18 18 18 19 19 19 16 18 17 18 17 17 15 16 15 14 12 13 16 16 15 16 16 16 16 16 16 16
12 13 13 14 14 15 15 15 15 17 13 17 18 18 18 19 17 16 18 18 18 16 17 16 15 15 15 16 16 15 14 13 12 12 13 12 11 14 16 16 16 15 14 15
12 12 13 14 14 15 14 15 15 15 14 16 18 18 18 18 18 17 17 17 15 13 13 13 14 13 14 14 14 14 11 11 9 9 8 11 15 16 16 15 15 16 16 16
11 12 13 13 14 14 15 15 14 14 10 16 16 17 17 15 16 16 15 13 13 13 14 13 10 10 6 9 13 13 13 11 8 9 12 13 15 14 14 13 13 15 15 14
11 12 12 13 13 14 14 15 15 14 12 13 16 16 16 16 15 14 11 10 11 12 12 10 8 13 14 14 12 11 11 10 10 8 9 10 14 15 13 13 12 13 12 11
10 11 12 12 13 13 14 14 15 14 12 13 15 15 16 16 16 15 13 11 11 12 10 9 10 13 14 14 10 7 6 7 8 8 8 11 14 13 12 10 11 11 9 7
10 10 11 12 12 12 13 13 14 14 12 11 12 12 13 13 15 13 13 12 11 11 8 8 10 8 12 12 14 11 9 8 7 8 7 8 13 13 9 10 9 8 6 4
9 9 10 11 11 12 12 12 13 14 13 11 11 12 13 13 13 14 11 14 12 13 11 9 8 6 7 9 11 15 12 13 12 12 12 14 13 12 10 9 8 6 4 3
8 9 9 10 10 11 12 12 12 13 12 10 11 11 12 12 12 12 12 11 13 12 11 9 7 6 9 7 10 12 14 14 12 11 13 13 12 10 7 6 5 4 4 5
7 8 8 9 9 10 11 10 11 12 11 10 10 10 10 11 11 11 11 11 11 10 9 6 4 7 12 9 12 12 13 12 11 11 12 11 9 6 5 4 3 4 5 5
7 7 7 8 8 9 10 10 10 11 10 9 9 8 10 10 10 10 10 10 9 8 6 4 6 10 9 8 7 10 11 12 11 9 10 7 6 5 5 4 5 5 4 4
6 6 7 7 8 8 8 9 9 10 10 10 9 7 7 9 9 8 8 9 9 9 8 6 9 10 10 6 6 10 11 11 11 10 7 6 5 4 4 5 4 4 4 4
5 5 5 6 7 7 8 9 8 9 9 9 7 8 5 6 7 6 7 6 7 7 8 6 7 9 8 5 6 10 9 9 8 6 5 3 4 4 4 4 4 4 4 4
5 5 5 5 6 6 7 8 8 8 8 8 5 5 5 5 5 5 5 5 5 5 6 4 5 6 5 5 7 8 8 6 5 4 4 5 4 4 4 4 4 3 3 2
5 5 5 5 5 5 6 7 7 7 7 7 4 5 5 4 3 3 3 4 5 4 3 3 4 4 5 7 7 7 6 5 5 5 5 5 4 4 4 3 3 2 2 1
5 5 5 6 5 6 6 6 6 6 6 5 4 6 5 5 3 3 3 3 5 4 4 2 1 3 4 5 5 6 5 4 4 4 4 4 3 3 3 2 2 1 -0 -1
4 4 4 3 4 5 5 5 4 4 2 2 2 4 4 3 4 3 3 3 2 4 4 4 5 5 6 4 4 3 3 3 4 3 3 3 2 2 2 1 -0 -1 -2 -2
3 3 2 2 2 2 3 2 1 1 3 1 1 1 2 2 3 2 0 2 3 4 4 3 4 7 6 4 3 3 3 3 3 2 2 2 1 1 -0 -1 -2 -2 -2 -1
1 1 1 0 -0 2 3 3 3 3 0 0 0 0 1 1 1 0 1 3 4 3 2 4 7 6 4 4 3 3 3 1 1 1 1 1 0 -0 -1 -1 -1 -2 -2 -2
0 -0 1 1 2 2 2 3 3 0 0 1 1 -0 0 -0 0 1 3 2 3 2 3 4 6 5 4 4 3 2 2 1 1 1 1 1 0 -1 -1 -1 -2 -2 -2 -2
0 0 1 1 -1 -1 -1 -0 -0 -0 0 1 1 1 1 1 1 1 1 1 3 4 5 5 5 4 3 2 1 1 1 1 1 -0 -1 -0 -1 -1 -2 -2 -2 -2 -2 -2
0 -1 -0 -1 -0 -1 -1 -0 -1 -0 0 0 0 1 2 1 2 1 2 3 4 4 4 3 2 1 1 0 1 1 1 0 -0 -0 -1 -1 -1 -2 -2 -2 -2 -2 -2 -3
-0 -1 -1 -1 -0 -0 -1 -1 -0 -0 -0 1 1 1 1 -1 1 2 3 3 3 2 2 2 1 0 0 0 -0 0 -0 -1 -1 -1 -2 -2 -2 -2 -2 -2 -3 -3 -4 -4

GFSNW_850_temp_024.txt.gz
Temp
11 12 13 13 14 14 15 15 17 16 16 17 19 19 21 19 20 19 21 22 22 21 21 21 20 19 18 18 19 19 17 18 16 19 19 19 19 19 18 15 15 15 14 15
11 12 13 13 14 14 15 16 16 15 16 17 17 19 20 20 20 21 20 20 21 21 20 18 20 18 17 17 17 16 17 17 16 18 18 18 18 19 18 16 13 13 12 15
12 12 13 14 14 15 15 17 16 16 16 18 19 19 19 18 19 19 20 20 20 20 19 20 18 17 17 16 15 14 15 18 17 16 17 18 17 18 18 18 13 14 14 15
12 12 13 14 14 14 14 17 18 18 17 18 20 20 20 19 18 19 19 19 20 20 18 19 18 18 16 16 14 16 17 15 17 17 17 18 17 17 17 17 17 14 15 16
12 12 13 14 14 15 15 17 18 17 19 19 20 16 20 20 20 19 19 19 20 20 18 19 18 19 18 17 16 17 16 14 13 13 17 16 15 16 16 17 17 17 16 16
12 13 13 14 14 15 16 16 17 18 16 18 19 18 20 20 19 18 20 20 19 15 17 16 16 16 17 17 17 16 15 13 12 12 12 11 11 14 16 16 17 16 14 16
12 13 13 14 14 15 15 15 16 16 15 18 19 19 20 20 18 18 19 19 16 15 15 14 14 14 15 16 15 15 11 12 9 9 8 10 16 17 17 16 16 16 16 16
12 12 13 14 14 14 15 15 15 14 8 17 19 18 19 18 17 18 15 14 15 15 15 14 11 10 8 11 15 14 15 11 8 9 11 13 15 15 14 13 13 15 14 12
11 12 13 13 14 14 15 15 15 14 13 14 18 18 17 17 16 15 12 12 13 14 12 10 10 13 15 13 12 12 13 11 10 8 8 10 14 15 14 14 11 12 11 10
11 12 12 13 13 14 14 14 15 15 14 15 16 17 16 16 15 15 13 12 12 13 9 7 11 13 15 13 10 7 7 8 9 9 8 10 14 14 13 11 10 9 8 7
11 11 12 12 12 13 14 14 14 15 13 12 13 15 16 16 16 13 14 13 12 11 7 8 10 8 12 13 15 9 8 8 7 8 8 8 14 13 9 10 9 8 7 6
10 11 11 12 12 12 13 12 14 14 14 11 11 13 14 14 13 15 13 15 13 12 11 10 10 6 6 8 12 16 13 12 12 11 10 13 12 11 9 8 7 6 6 5
10 10 10 11 11 12 12 12 13 13 12 11 12 11 12 13 13 13 13 12 14 14 12 8 6 5 8 6 10 13 15 15 12 12 13 14 10 8 7 6 5 5 5 6
9 9 9 10 10 11 11 11 12 12 12 10 11 11 11 12 13 12 12 13 12 12 11 5 4 5 12 9 11 12 13 14 13 12 13 12 8 6 6 6 5 5 6 6
8 8 8 9 9 10 10 11 11 12 11 8 10 10 10 11 11 10 11 11 11 9 7 4 5 9 10 8 8 9 12 12 10 10 11 10 8 6 6 5 5 6 5 5
7 7 8 8 9 9 10 10 10 11 10 11 7 9 8 9 10 10 10 10 10 11 9 6 9 12 10 6 7 11 12 12 12 10 8 6 5 5 5 6 5 5 4 5
6 6 7 7 8 8 8 9 9 9 10 10 7 8 6 7 9 9 9 8 7 9 9 8 7 9 10 5 7 11 11 11 10 8 6 5 5 5 5 5 5 5 5 4
5 5 5 5 6 7 7 8 9 8 9 9 6 6 6 6 6 6 6 6 7 7 7 5 6 7 6 6 8 9 10 10 7 6 6 5 4 5 5 5 5 4 4 3
5 5 5 5 6 6 7 7 8 8 8 7 4 5 5 5 4 4 4 5 4 4 4 4 5 4 5 7 8 9 9 7 7 6 6 6 5 5 5 4 4 3 2 1
5 5 5 5 5 6 7 7 7 7 6 6 4 6 6 6 3 3 3 3 5 4 4 3 2 3 5 7 7 8 7 6 6 5 5 5 4 4 3 3 2 1 0 -1
4 5 4 4 5 5 6 5 5 5 4 4 4 5 4 5 4 3 3 3 3 5 4 4 4 5 6 6 6 6 6 5 4 5 4 4 3 3 2 2 1 0 -1 -1
3 4 3 3 3 2 4 2 2 2 4 1 1 2 3 3 4 3 2 3 2 5 4 3 4 7 7 5 5 4 4 4 4 3 3 3 2 2 1 0 -0 -1 -1 -1
2 2 2 1 -0 2 3 3 2 2 0 0 1 0 1 2 2 1 1 2 3 2 3 3 6 6 5 5 4 4 3 3 2 2 2 1 1 1 0 0 -0 -1 -1 -1
1 -0 1 1 2 1 1 1 1 0 1 0 1 0 1 0 0 0 2 1 2 3 3 4 6 6 5 5 4 3 2 2 1 1 1 1 1 0 -0 -1 -1 -1 -2 -2
0 0 2 1 -1 -1 -1 -0 -0 -0 0 0 0 0 1 0 1 1 1 2 3 3 4 2 4 5 4 3 3 2 1 1 1 1 1 1 0 -0 -1 -1 -2 -2 -2 -2
0 -0 0 -1 -0 -1 -1 -0 -1 -0 -0 0 0 0 1 1 1 2 2 3 3 3 2 3 3 2 2 1 1 1 1 1 1 1 0 -0 -1 -1 -1 -2 -2 -2 -2 -2
0 -1 -0 -1 0 -0 -1 -0 -0 -0 0 0 0 2 1 0 2 2 2 2 2 2 2 2 2 1 1 1 1 1 1 0 -0 -1 -1 -1 -2 -2 -2 -2 -2 -2 -3 -3

GFSNW_850_temp_027.txt.gz
Temp
11 12 13 13 14 14 15 15 12 16 16 15 15 13 18 20 19 19 20 20 21 20 20 19 18 16 16 18 17 16 16 14 11 16 18 18 18 17 16 8 12 8 7 10
11 12 13 13 13 14 15 15 15 15 15 10 8 16 19 20 19 19 20 19 19 19 18 16 15 15 16 16 14 13 15 14 9 13 15 16 17 18 15 11 7 10 6 9
11 12 12 13 13 14 14 15 10 14 15 16 15 17 18 18 19 19 20 19 20 19 17 18 15 14 15 15 14 14 14 15 12 10 15 15 16 16 16 12 6 9 8 12
11 11 12 13 14 14 14 15 14 15 10 13 14 17 17 17 17 19 19 19 18 18 17 17 15 14 14 15 15 15 13 12 13 13 14 15 15 15 14 14 13 10 11 13
11 12 12 13 14 14 13 15 15 17 16 17 16 13 17 17 17 17 18 18 18 16 15 14 15 14 14 14 14 15 13 9 11 12 13 12 12 12 12 13 14 14 14 14
11 12 12 13 14 14 15 15 16 17 14 15 13 14 18 18 17 18 18 17 12 11 13 15 14 16 16 15 14 13 11 7 6 7 8 7 7 12 14 15 15 14 11 12
12 12 13 13 14 14 15 16 16 16 9 12 14 17 18 16 17 16 15 16 12 14 15 15 15 14 14 15 14 13 8 7 4 4 4 6 12 14 14 13 12 12 11 10
11 12 13 13 14 15 15 16 16 16 5 14 16 18 16 15 15 13 13 14 15 15 15 7 9 6 6 9 12 12 11 5 3 5 5 8 12 14 12 11 10 10 9 8
11 12 12 13 14 15 15 15 15 15 13 10 16 17 16 11 11 11 12 13 14 14 8 4 6 7 9 9 11 8 8 5 4 2 4 4 9 13 13 13 6 9 8 7
11 12 12 13 13 14 15 15 15 15 15 14 15 14 13 15 13 8 12 12 13 13 2 5 5 7 11 8 7 4 3 5 4 2 3 5 9 13 13 8 7 8 7 7
11 12 12 12 13 13 14 14 14 15 14 13 14 15 16 16 14 7 12 9 10 5 6 4 4 4 5 9 9 6 4 4 4 6 7 4 12 11 8 7 8 7 6 6
11 11 11 12 12 13 13 14 14 14 14 12 12 13 14 15 14 14 13 13 11 10 5 3 4 4 5 5 6 10 8 6 5 6 5 10 11 11 10 9 7 6 6 6
10 10 11 11 12 12 13 13 13 14 13 11 12 12 13 13 14 14 13 13 13 12 12 7 6 4 4 3 5 11 11 11 6 8 10 10 9 8 8 7 7 7 6 5
9 10 10 11 11 12 12 12 12 13 12 9 10 11 12 12 13 13 14 14 13 12 11 5 4 3 8 3 6 5 9 11 10 7 10 8 7 8 7 6 6 6 5 5
9 9 10 10 10 11 11 11 12 12 12 8 9 10 10 11 12 12 12 12 12 11 8 3 3 6 6 6 4 3 11 9 6 4 11 10 7 6 7 6 5 5 5 5
8 8 9 9 10 10 11 11 11 11 11 12 4 8 8 9 10 10 10 10 10 10 10 6 8 10 9 4 5 9 11 12 11 9 8 9 7 6 5 6 5 5 5 4
7 7 8 8 9 9 10 10 9 10 10 11 5 6 7 8 9 9 9 9 9 9 9 8 7 8 9 3 4 8 11 11 10 9 8 6 6 5 5 5 5 5 4 4
6 6 7 7 8 8 8 9 9 9 10 10 3 4 6 7 7 7 6 8 8 7 7 6 6 7 5 4 6 9 10 10 9 7 6 6 6 5 5 5 4 4 3 3
5 5 5 6 7 7 7 7 8 8 9 7 4 2 2 6 4 5 5 6 3 5 4 4 5 2 4 5 7 8 9 8 7 6 5 5 5 5 4 4 3 3 2 2
5 5 5 5 6 7 7 7 7 7 7 6 4 5 3 5 4 3 4 4 2 3 3 3 1 3 5 7 7 8 8 8 7 6 5 5 4 4 3 3 2 2 2 1
5 5 5 5 5 6 6 6 4 4 4 4 4 5 4 4 2 2 3 2 2 4 2 3 3 3 4 7 6 7 7 6 5 3 3 3 3 3 2 2 2 1 1 -0
4 5 4 4 4 4 3 2 2 2 3 2 2 3 4 4 4 3 2 2 2 4 3 2 3 2 5 5 5 4 4 2 3 3 3 2 2 2 2 1 1 0 -1 -1
3 3 3 2 0 2 3 3 2 2 1 1 1 1 2 2 3 1 1 2 3 2 2 2 1 5 4 4 4 4 4 3 3 2 2 2 2 1 1 0 -0 -1 -1 -1
2 1 1 1 1 1 0 1 0 0 1 0 1 0 1 0 1 0 2 1 1 2 1 0 2 3 2 4 4 3 3 3 2 2 2 1 1 0 -0 -0 -1 -1 -1 -2
0 1 1 0 -1 -1 -1 -1 -0 0 0 0 0 -0 0 -0 0 0 0 1 2 2 2 0 1 2 3 3 3 2 2 2 2 1 1 0 -0 -0 -0 -1 -1 -1 -2 -2
-0 -1 -1 -1 -0 -1 -1 -1 -1 -0 -0 -0 0 -0 1 0 0 1 2 2 2 1 0 0 1 2 2 1 2 1 1 1 1 0 -0 -0 -1 -1 -1 -1 -1 -2 -2 -2
0 -1 -1 -0 -0 -1 -0 -0 -1 -0 0 -0 0 1 -0 -1 0 1 0 1 0 2 2 2 2 2 1 1 1 1 0 0 -0 -0 -1 -1 -1 -1 -1 -1 -1 -2 -2 -2